Flag for U.S.A. Weather past 2 weeks in Mansfield, Texas, U.S.A.

Now
55 °F

Sunny.


Feels Like: 51 °F
Forecast: 43 / 64 °F
Wind: 16 mph from Northwest

Location: Burleson-Rendon

Current Time: Jan 25, 2015 at 10:32:37 AM

Latest Report: Jan 25, 2015 at 9:49 AM


Visibility: 20 mi

Pressure: 30.08 "Hg

Humidity: 47%

Dew point: 36 °F

Location of MansfieldLocation

Historic Weather in Mansfield — Graph

°F

Mansfield temperature yesterday

Maximum temperature yesterday: 61 °F (at 3:50 PM)
Minimum temperature yesterday: 34 °F (at 6:53 AM)
Average temperature yesterday: 42 °F

Past Weeks' High & Low Weather Summary

 TemperatureHumidityPressure
High72 °F (Jan 18, 2:50 PM)100% (Jan 11, 6:49 AM)30.52 "Hg (Jan 11, 6:49 AM)
Low27 °F (Jan 18, 6:46 AM)17% (Jan 18, 2:50 PM)29.92 "Hg (Jan 20, 5:15 AM)
Average43 °F72%30.22 "Hg
* Reported Jan 10 8:48 AM — Jan 25 8:47 AM, Mansfield, Weather by CustomWeather, © 2014

Note: Actual official high and low records may vary slightly from our data, if they occured in-between our weather recording intervals... More about our weather records

Advertising

Mansfield weather history for previous 24 hours

 ConditionsComfort  
Time TempWeatherWind HumidityBarometerVisibility
8:47 AM
Jan 25
48 °FSunny.9 mph66%30.06 "Hg20 mi
7:50 AM45 °FSunny.No wind71%30.03 "Hg20 mi
6:50 AM43 °FClear.8 mph76%30.00 "Hg20 mi
6:35 AM43 °FClear.7 mph72%29.99 "Hg10 mi
6:15 AM43 °FClear.7 mph72%29.98 "Hg10 mi
5:55 AM44 °FClear.8 mph70%29.98 "Hg10 mi
5:35 AM45 °FClear.8 mph68%29.98 "Hg10 mi
5:15 AM46 °FClear.13 mph68%29.97 "Hg10 mi
4:55 AM46 °FClear.12 mph68%29.96 "Hg10 mi
4:35 AM45 °FClear.9 mph71%29.96 "Hg10 mi
4:15 AM44 °FClear.7 mph73%29.96 "Hg10 mi
3:55 AM46 °FClear.9 mph71%29.97 "Hg10 mi
3:35 AM46 °FClear.9 mph71%29.98 "Hg10 mi
3:15 AM45 °FClear.6 mph70%29.97 "Hg10 mi
2:55 AM45 °FClear.No wind70%29.96 "Hg10 mi
2:35 AM46 °FClear.5 mph67%29.97 "Hg10 mi
2:15 AM45 °FClear.5 mph70%29.97 "Hg10 mi
1:55 AM46 °FClear.3 mph67%29.98 "Hg10 mi
1:35 AM47 °FClear.7 mph66%29.98 "Hg10 mi
1:15 AM47 °FClear.7 mph66%29.98 "Hg10 mi
12:55 AM48 °FClear.10 mph65%29.98 "Hg10 mi
12:35 AM42 °FClear.No wind73%30.00 "Hg10 mi
12:15 AM40 °FClear.No wind79%30.00 "Hg10 mi
11:55 PM
Jan 24
41 °FClear.No wind77%30.00 "Hg10 mi
11:35 PM42 °FClear.5 mph76%30.01 "Hg10 mi
11:15 PM42 °FClear.No wind75%30.02 "Hg10 mi
10:55 PM42 °FClear.6 mph73%30.02 "Hg10 mi
10:15 PM44 °FClear.5 mph68%30.03 "Hg10 mi
9:35 PM42 °FClear.5 mph75%30.03 "Hg10 mi
9:15 PM39 °FClear.5 mph80%30.04 "Hg10 mi
8:55 PM43 °FClear.No wind73%30.05 "Hg10 mi
8:35 PM42 °FClear.No wind75%30.06 "Hg10 mi
8:15 PM44 °FClear.3 mph70%30.06 "Hg10 mi
7:55 PM46 °FClear.No wind65%30.06 "Hg10 mi
7:35 PM46 °FClear.No wind65%30.06 "Hg10 mi
7:15 PM49 °FClear.5 mph57%30.06 "Hg10 mi
6:46 PM52 °FClear.5 mph54%30.06 "Hg20 mi
4:52 PM57 °FSunny.9 mph44%30.07 "Hg20 mi
3:50 PM61 °FSunny.8 mph36%30.08 "Hg20 mi
2:49 PM57 °FSunny.9 mph41%30.10 "Hg20 mi
1:47 PM57 °FSunny.6 mph41%30.12 "Hg20 mi
12:47 PM55 °FSunny.3 mph41%30.16 "Hg20 mi
11:52 AM52 °FSunny.3 mph47%30.19 "Hg20 mi
10:52 AM48 °FSunny.8 mph54%30.20 "Hg20 mi
Weather by CustomWeather, © 2014

See weather overviewHow to use our weather pages